Weather in Cherkizovo

Russia / Moscow Oblast     55°57′40″N   37°48′00″E
temp.,
°C
wind,
m/s
gust,
m/s
humid.,
%
clouds,
%
prec.,
mm/h
press.,
hPa
HPBL,
m
1 march, mon
mon100:00−7nne129353 0.0 102121
03:00−9nnw119332 0.0 102321
06:00−8w129470 0.0 102321
09:00−6wsw249683 0.1 1024171
12:00−2wsw469182 0.0 1023403
15:000wsw599286 0.0 1021624
18:00+1wsw51191100 0.0 1019512
21:00+1w51393100 0.0 1017683
2 march, tue
tue200:00+1w51291100 0.0 1014638
03:00+1wnw51291100 0.0 1012894
06:00+1w51393100 0.0 1010728
09:00+1nw41090100 0.2 1010815
12:00+2nw598591 0.1 10081019
15:00+1nw5108693 0.3 10081014
18:000nw4118464 0.1 1008801
21:00−1nnw6118882 0.2 1010987
3 march, wed
wed300:00−3nw5129399 0.1 1012860
03:00−4nnw5128798 0.3 1014885
06:00−5nnw6128960 0.1 1015892
09:00−4nnw5127962 0.1 1017969
12:00−1wnw598120 0.0 1016781
15:00−1wnw598452 0.1 1016886
18:00−1wnw51084100 0.1 1014800
21:00−1wnw41087100 0.1 1014769
4 march, thu
thu400:00−2wsw41190100 0.1 1011805
03:00−1wsw61489100 0.1 1007772
06:00−1wsw71587100 0.1 1003791
09:00−1w71487100 0.1 10011044
12:000w71288100 0.1 9991063
15:00+1wsw71294100 0.3 999872
18:00−2wnw3978100 1.9 999925
21:00−4nw31087100 1.9 1002501
5 march, fri
fri500:00−6nw38930 0.0 1004298
03:00−7nw389524 0.0 1006296
06:00−9nw249644 0.0 1008112
09:00−8nw239023 0.0 1009188
12:00−4wnw22720 0.0 1010654
15:00−3w12655 0.0 1011893
18:00−6wsw118469 0.0 101121
21:00−8ssw018863 0.0 101221